Year,Month,Day,Hour,Minute,Value (Times are PST for temperature in C)
2016,04,18,00,00,8.70
2016,04,18,00,01,8.70
2016,04,18,00,02,8.60
2016,04,18,00,03,8.60
2016,04,18,00,04,8.70
2016,04,18,00,05,8.60
2016,04,18,00,06,8.60
2016,04,18,00,07,8.60
2016,04,18,00,08,8.60
2016,04,18,00,09,8.60
2016,04,18,00,10,8.60
2016,04,18,00,11,8.60
2016,04,18,00,12,8.60
2016,04,18,00,13,8.60
2016,04,18,00,14,8.60
2016,04,18,00,15,8.60
2016,04,18,00,16,8.60
2016,04,18,00,17,8.60
2016,04,18,00,18,8.60
2016,04,18,00,19,8.50
2016,04,18,00,20,8.50
2016,04,18,00,21,8.50
2016,04,18,00,22,8.50
2016,04,18,00,23,8.50
2016,04,18,00,24,8.50
2016,04,18,00,25,8.50
2016,04,18,00,26,8.50
2016,04,18,00,27,8.50
2016,04,18,00,28,8.50
2016,04,18,00,29,8.50
2016,04,18,00,30,8.50
2016,04,18,00,31,8.50
2016,04,18,00,32,8.50
2016,04,18,00,33,8.50
2016,04,18,00,34,8.50
2016,04,18,00,35,8.40
2016,04,18,00,36,8.40
2016,04,18,00,37,8.40
2016,04,18,00,38,8.40
2016,04,18,00,39,8.40
2016,04,18,00,40,8.40
2016,04,18,00,41,8.40
2016,04,18,00,42,8.40
2016,04,18,00,43,8.40
2016,04,18,00,44,8.40
2016,04,18,00,45,8.40
2016,04,18,00,46,8.40
2016,04,18,00,47,8.40
2016,04,18,00,48,8.40
2016,04,18,00,49,8.40
2016,04,18,00,50,8.30
2016,04,18,00,51,8.30
2016,04,18,00,52,8.30
2016,04,18,00,53,8.30
2016,04,18,00,54,8.30
2016,04,18,00,55,8.30
2016,04,18,00,56,8.30
2016,04,18,00,57,8.30
2016,04,18,00,58,8.30
2016,04,18,00,59,8.30
2016,04,18,01,00,8.30
2016,04,18,01,01,8.30
2016,04,18,01,02,8.30
2016,04,18,01,03,8.30
2016,04,18,01,04,8.20
2016,04,18,01,05,8.20
2016,04,18,01,06,8.20
2016,04,18,01,07,8.20
2016,04,18,01,08,8.20
2016,04,18,01,09,8.20
2016,04,18,01,10,8.20
2016,04,18,01,11,8.20
2016,04,18,01,12,8.20
2016,04,18,01,13,8.20
2016,04,18,01,14,8.20
2016,04,18,01,15,8.20
2016,04,18,01,16,8.20
2016,04,18,01,17,8.20
2016,04,18,01,18,8.20
2016,04,18,01,19,8.20
2016,04,18,01,20,8.20
2016,04,18,01,21,8.20
2016,04,18,01,22,8.20
2016,04,18,01,23,8.20
2016,04,18,01,24,8.20
2016,04,18,01,25,8.10
2016,04,18,01,26,8.10
2016,04,18,01,27,8.10
2016,04,18,01,28,8.10
2016,04,18,01,29,8.10
2016,04,18,01,30,8.10
2016,04,18,01,31,8.10
2016,04,18,01,32,8.10
2016,04,18,01,33,8.10
2016,04,18,01,34,8.10
2016,04,18,01,35,8.10
2016,04,18,01,36,8.10
2016,04,18,01,37,8.10
2016,04,18,01,38,8.10
2016,04,18,01,39,8.10
2016,04,18,01,40,8.10
2016,04,18,01,41,8.10
2016,04,18,01,42,8.10
2016,04,18,01,43,8.10
2016,04,18,01,44,8.10
2016,04,18,01,45,8.10
2016,04,18,01,46,8.00
2016,04,18,01,47,8.00
2016,04,18,01,48,8.00
2016,04,18,01,49,8.00
2016,04,18,01,50,8.00
2016,04,18,01,51,8.00
2016,04,18,01,52,8.00
2016,04,18,01,53,7.90
2016,04,18,01,54,7.90
2016,04,18,01,55,7.90
2016,04,18,01,56,7.90
2016,04,18,01,57,7.90
2016,04,18,01,58,7.90
2016,04,18,01,59,7.90
2016,04,18,02,00,7.90
2016,04,18,02,01,7.90
2016,04,18,02,02,8.00
2016,04,18,02,03,8.00
2016,04,18,02,04,8.00
2016,04,18,02,05,8.00
2016,04,18,02,06,7.90
2016,04,18,02,07,7.90
2016,04,18,02,08,7.90
2016,04,18,02,09,7.90
2016,04,18,02,10,7.90
2016,04,18,02,11,7.90
2016,04,18,02,12,7.90
2016,04,18,02,13,7.90
2016,04,18,02,14,7.90
2016,04,18,02,15,7.90
2016,04,18,02,16,7.90
2016,04,18,02,17,7.90
2016,04,18,02,18,7.90
2016,04,18,02,19,7.80
2016,04,18,02,20,7.80
2016,04,18,02,21,7.80
2016,04,18,02,22,7.80
2016,04,18,02,23,7.80
2016,04,18,02,24,7.80
2016,04,18,02,25,7.80
2016,04,18,02,26,7.80
2016,04,18,02,27,7.80
2016,04,18,02,28,7.80
2016,04,18,02,29,7.70
2016,04,18,02,30,7.70
2016,04,18,02,31,7.80
2016,04,18,02,32,7.80
2016,04,18,02,33,7.80
2016,04,18,02,34,7.70
2016,04,18,02,35,7.70
2016,04,18,02,36,7.80
2016,04,18,02,37,7.80
2016,04,18,02,38,7.70
2016,04,18,02,39,7.70
2016,04,18,02,40,7.70
2016,04,18,02,41,7.70
2016,04,18,02,42,7.70
2016,04,18,02,43,7.70
2016,04,18,02,44,7.70
2016,04,18,02,45,7.70
2016,04,18,02,46,7.70
2016,04,18,02,47,7.70
2016,04,18,02,48,7.70
2016,04,18,02,49,7.70
2016,04,18,02,50,7.70
2016,04,18,02,51,7.70
2016,04,18,02,52,7.70
2016,04,18,02,53,7.70
2016,04,18,02,54,7.70
2016,04,18,02,55,7.70
2016,04,18,02,56,7.70
2016,04,18,02,57,7.70
2016,04,18,02,58,7.70
2016,04,18,02,59,7.70
2016,04,18,03,00,7.70
2016,04,18,03,01,7.70
2016,04,18,03,02,7.60
2016,04,18,03,03,7.60
2016,04,18,03,04,7.60
2016,04,18,03,05,7.60
2016,04,18,03,06,7.60
2016,04,18,03,07,7.60
2016,04,18,03,08,7.60
2016,04,18,03,09,7.60
2016,04,18,03,10,7.60
2016,04,18,03,11,7.60
2016,04,18,03,12,7.60
2016,04,18,03,13,7.60
2016,04,18,03,14,7.60
2016,04,18,03,15,7.60
2016,04,18,03,16,7.60
2016,04,18,03,17,7.60
2016,04,18,03,18,7.60
2016,04,18,03,19,7.60
2016,04,18,03,20,7.60
2016,04,18,03,21,7.60
2016,04,18,03,22,7.70
2016,04,18,03,23,7.70
2016,04,18,03,24,7.60
2016,04,18,03,25,7.60
2016,04,18,03,26,7.60
2016,04,18,03,27,7.60
2016,04,18,03,28,7.60
2016,04,18,03,29,7.60
2016,04,18,03,30,7.60
2016,04,18,03,31,7.50
2016,04,18,03,32,7.50
2016,04,18,03,33,7.50
2016,04,18,03,34,7.50
2016,04,18,03,35,7.50
2016,04,18,03,36,7.50
2016,04,18,03,37,7.50
2016,04,18,03,38,7.40
2016,04,18,03,39,7.50
2016,04,18,03,40,7.50
2016,04,18,03,41,7.50
2016,04,18,03,42,7.50
2016,04,18,03,43,7.50
2016,04,18,03,44,7.50
2016,04,18,03,45,7.50
2016,04,18,03,46,7.50
2016,04,18,03,47,7.40
2016,04,18,03,48,7.40
2016,04,18,03,49,7.40
2016,04,18,03,50,7.40
2016,04,18,03,51,7.40
2016,04,18,03,52,7.40
2016,04,18,03,53,7.40
2016,04,18,03,54,7.40
2016,04,18,03,55,7.40
2016,04,18,03,56,7.40
2016,04,18,03,57,7.40
2016,04,18,03,58,7.40
2016,04,18,03,59,7.40
2016,04,18,04,00,7.40
2016,04,18,04,01,7.40
2016,04,18,04,02,7.40
2016,04,18,04,03,7.40
2016,04,18,04,04,7.30
2016,04,18,04,05,7.30
2016,04,18,04,06,7.30
2016,04,18,04,07,7.30
2016,04,18,04,08,7.30
2016,04,18,04,09,7.30
2016,04,18,04,10,7.30
2016,04,18,04,11,7.30
2016,04,18,04,12,7.30
2016,04,18,04,13,7.30
2016,04,18,04,14,7.30
2016,04,18,04,15,7.30
2016,04,18,04,16,7.30
2016,04,18,04,17,7.30
2016,04,18,04,18,7.30
2016,04,18,04,19,7.30
2016,04,18,04,20,7.30
2016,04,18,04,21,7.30
2016,04,18,04,22,7.30
2016,04,18,04,23,7.30
2016,04,18,04,24,7.30
2016,04,18,04,25,7.30
2016,04,18,04,26,7.30
2016,04,18,04,27,7.30
2016,04,18,04,28,7.30
2016,04,18,04,29,7.30
2016,04,18,04,30,7.30
2016,04,18,04,31,7.30
2016,04,18,04,32,7.30
2016,04,18,04,33,7.30
2016,04,18,04,34,7.30
2016,04,18,04,35,7.30
2016,04,18,04,36,7.30
2016,04,18,04,37,7.30
2016,04,18,04,38,7.30
2016,04,18,04,39,7.30
2016,04,18,04,40,7.30
2016,04,18,04,41,7.30
2016,04,18,04,42,7.40
2016,04,18,04,43,7.30
2016,04,18,04,44,7.30
2016,04,18,04,45,7.30
2016,04,18,04,46,7.30
2016,04,18,04,47,7.30
2016,04,18,04,48,7.30
2016,04,18,04,49,7.30
2016,04,18,04,50,7.30
2016,04,18,04,51,7.30
2016,04,18,04,52,7.30
2016,04,18,04,53,7.30
2016,04,18,04,54,7.30
2016,04,18,04,55,7.30
2016,04,18,04,56,7.30
2016,04,18,04,57,7.30
2016,04,18,04,58,7.30
2016,04,18,04,59,7.30
2016,04,18,05,00,7.40
2016,04,18,05,01,7.40
2016,04,18,05,02,7.40
2016,04,18,05,03,7.40
2016,04,18,05,04,7.40
2016,04,18,05,05,7.40
2016,04,18,05,06,7.30
2016,04,18,05,07,7.30
2016,04,18,05,08,7.30
2016,04,18,05,09,7.30
2016,04,18,05,10,7.30
2016,04,18,05,11,7.30
2016,04,18,05,12,7.30
2016,04,18,05,13,7.30
2016,04,18,05,14,7.30
2016,04,18,05,15,7.30
2016,04,18,05,16,7.30
2016,04,18,05,17,7.30
2016,04,18,05,18,7.30
2016,04,18,05,19,7.30
2016,04,18,05,20,7.30
2016,04,18,05,21,7.30
2016,04,18,05,22,7.30
2016,04,18,05,23,7.30
2016,04,18,05,24,7.30
2016,04,18,05,25,7.30
2016,04,18,05,26,7.30
2016,04,18,05,27,7.30
2016,04,18,05,28,7.30
2016,04,18,05,29,7.30
2016,04,18,05,30,7.30
2016,04,18,05,31,7.30
2016,04,18,05,32,7.30
2016,04,18,05,33,7.30
2016,04,18,05,34,7.30
2016,04,18,05,35,7.30
2016,04,18,05,36,7.30
2016,04,18,05,37,7.30
2016,04,18,05,38,7.30
2016,04,18,05,39,7.30
2016,04,18,05,40,7.30
2016,04,18,05,41,7.30
2016,04,18,05,42,7.40
2016,04,18,05,43,7.50
2016,04,18,05,44,7.50
2016,04,18,05,45,7.60
2016,04,18,05,46,7.60
2016,04,18,05,47,7.50
2016,04,18,05,48,7.50
2016,04,18,05,49,7.40
2016,04,18,05,50,7.40
2016,04,18,05,51,7.40
2016,04,18,05,52,7.40
2016,04,18,05,53,7.40
2016,04,18,05,54,7.40
2016,04,18,05,55,7.30
2016,04,18,05,56,7.30
2016,04,18,05,57,7.30
2016,04,18,05,58,7.30
2016,04,18,05,59,7.30
2016,04,18,06,00,7.20
2016,04,18,06,01,7.20
2016,04,18,06,02,7.20
2016,04,18,06,03,7.20
2016,04,18,06,04,7.20
2016,04,18,06,05,7.20
2016,04,18,06,06,7.20
2016,04,18,06,07,7.20
2016,04,18,06,08,7.20
2016,04,18,06,09,7.20
2016,04,18,06,10,7.20
2016,04,18,06,11,7.20
2016,04,18,06,12,7.20
2016,04,18,06,13,7.20
2016,04,18,06,14,7.20
2016,04,18,06,15,7.20
2016,04,18,06,16,7.20
2016,04,18,06,17,7.20
2016,04,18,06,18,7.20
2016,04,18,06,19,7.20
2016,04,18,06,20,7.20
2016,04,18,06,21,7.10
2016,04,18,06,22,7.10
2016,04,18,06,23,7.10
2016,04,18,06,24,7.10
2016,04,18,06,25,7.10
2016,04,18,06,26,7.10
2016,04,18,06,27,7.00
2016,04,18,06,28,7.00
2016,04,18,06,29,7.00
2016,04,18,06,30,7.00
2016,04,18,06,31,6.90
2016,04,18,06,32,6.90
2016,04,18,06,33,6.90
2016,04,18,06,34,6.90
2016,04,18,06,35,7.00
2016,04,18,06,36,7.00
2016,04,18,06,37,7.00
2016,04,18,06,38,7.00
2016,04,18,06,39,7.00
2016,04,18,06,40,7.00
2016,04,18,06,41,7.00
2016,04,18,06,42,7.00
2016,04,18,06,43,7.10
2016,04,18,06,44,7.10
2016,04,18,06,45,7.10
2016,04,18,06,46,7.20
2016,04,18,06,47,7.20
2016,04,18,06,48,7.20
2016,04,18,06,49,7.20
2016,04,18,06,50,7.20
2016,04,18,06,51,7.20
2016,04,18,06,52,7.20
2016,04,18,06,53,7.20
2016,04,18,06,54,7.30
2016,04,18,06,55,7.30
2016,04,18,06,56,7.30
2016,04,18,06,57,7.30
2016,04,18,06,58,7.30
2016,04,18,06,59,7.30
2016,04,18,07,00,7.30
2016,04,18,07,01,7.30
2016,04,18,07,02,7.40
2016,04,18,07,03,7.40
2016,04,18,07,04,7.40
2016,04,18,07,05,7.40
2016,04,18,07,06,7.40
2016,04,18,07,07,7.50
2016,04,18,07,08,7.50
2016,04,18,07,09,7.60
2016,04,18,07,10,7.60
2016,04,18,07,11,7.60
2016,04,18,07,12,7.60
2016,04,18,07,13,7.70
2016,04,18,07,14,7.70
2016,04,18,07,15,7.70
2016,04,18,07,16,7.70
2016,04,18,07,17,7.70
2016,04,18,07,18,7.70
2016,04,18,07,19,7.80
2016,04,18,07,20,7.80
2016,04,18,07,21,7.80
2016,04,18,07,22,7.90
2016,04,18,07,23,7.90
2016,04,18,07,24,7.90
2016,04,18,07,25,8.00
2016,04,18,07,26,8.10
2016,04,18,07,27,8.10
2016,04,18,07,28,8.20
2016,04,18,07,29,8.20
2016,04,18,07,30,8.30
2016,04,18,07,31,8.40
2016,04,18,07,32,8.50
2016,04,18,07,33,8.60
2016,04,18,07,34,8.60
2016,04,18,07,35,8.70
2016,04,18,07,36,8.80
2016,04,18,07,37,8.80
2016,04,18,07,38,8.90
2016,04,18,07,39,8.90
2016,04,18,07,40,9.00
2016,04,18,07,41,9.10
2016,04,18,07,42,9.20
2016,04,18,07,43,9.30
2016,04,18,07,44,9.30
2016,04,18,07,45,9.40
2016,04,18,07,46,9.50
2016,04,18,07,47,9.50
2016,04,18,07,48,9.60
2016,04,18,07,49,9.70
2016,04,18,07,50,9.70
2016,04,18,07,51,9.80
2016,04,18,07,52,9.80
2016,04,18,07,53,9.80
2016,04,18,07,54,9.90
2016,04,18,07,55,10.00
2016,04,18,07,56,10.00
2016,04,18,07,57,10.10
2016,04,18,07,58,10.20
2016,04,18,07,59,10.20
2016,04,18,08,00,10.30
2016,04,18,08,01,10.40
2016,04,18,08,02,10.50
2016,04,18,08,03,10.60
2016,04,18,08,04,10.60
2016,04,18,08,05,10.70
2016,04,18,08,06,10.80
2016,04,18,08,07,10.90
2016,04,18,08,08,11.00
2016,04,18,08,09,11.20
2016,04,18,08,10,11.30
2016,04,18,08,11,11.40
2016,04,18,08,12,11.50
2016,04,18,08,13,11.60
2016,04,18,08,14,11.70
2016,04,18,08,15,11.70
2016,04,18,08,16,11.70
2016,04,18,08,17,11.70
2016,04,18,08,18,11.60
2016,04,18,08,19,11.60
2016,04,18,08,20,11.60
2016,04,18,08,21,11.70
2016,04,18,08,22,11.80
2016,04,18,08,23,11.80
2016,04,18,08,24,11.90
2016,04,18,08,25,12.00
2016,04,18,08,26,12.10
2016,04,18,08,27,12.10
2016,04,18,08,28,12.10
2016,04,18,08,29,12.10
2016,04,18,08,30,12.10
2016,04,18,08,31,12.00
2016,04,18,08,32,12.00
2016,04,18,08,33,11.90
2016,04,18,08,34,11.90
2016,04,18,08,35,12.00
2016,04,18,08,36,12.00
2016,04,18,08,37,12.10
2016,04,18,08,38,12.20
2016,04,18,08,39,12.30
2016,04,18,08,40,12.30
2016,04,18,08,41,12.40
2016,04,18,08,42,12.50
2016,04,18,08,43,12.50
2016,04,18,08,44,12.60
2016,04,18,08,45,12.60
2016,04,18,08,46,12.70
2016,04,18,08,47,12.70
2016,04,18,08,48,12.70
2016,04,18,08,49,12.80
2016,04,18,08,50,12.80
2016,04,18,08,51,12.80
2016,04,18,08,52,12.80
2016,04,18,08,53,12.80
2016,04,18,08,54,12.80
2016,04,18,08,55,12.80
2016,04,18,08,56,12.80
2016,04,18,08,57,12.90
2016,04,18,08,58,13.00
2016,04,18,08,59,13.10
2016,04,18,09,00,13.10
2016,04,18,09,01,13.30
2016,04,18,09,02,13.40
2016,04,18,09,03,13.50
2016,04,18,09,04,13.70
2016,04,18,09,05,13.80
2016,04,18,09,06,13.90
2016,04,18,09,07,14.00
2016,04,18,09,08,14.10
2016,04,18,09,09,14.20
2016,04,18,09,10,14.20
2016,04,18,09,11,14.30
2016,04,18,09,12,14.40
2016,04,18,09,13,14.50
2016,04,18,09,14,14.60
2016,04,18,09,15,14.60
2016,04,18,09,16,14.60
2016,04,18,09,17,14.60
2016,04,18,09,18,14.50
2016,04,18,09,19,14.40
2016,04,18,09,20,14.30
2016,04,18,09,21,14.30
2016,04,18,09,22,14.20
2016,04,18,09,23,14.10
2016,04,18,09,24,13.90
2016,04,18,09,25,13.80
2016,04,18,09,26,13.70
2016,04,18,09,27,13.70
2016,04,18,09,28,13.70
2016,04,18,09,29,13.70
2016,04,18,09,30,13.90
2016,04,18,09,31,14.00
2016,04,18,09,32,14.20
2016,04,18,09,33,14.50
2016,04,18,09,34,14.70
2016,04,18,09,35,15.00
2016,04,18,09,36,15.30
2016,04,18,09,37,15.60
2016,04,18,09,38,15.90
2016,04,18,09,39,16.30
2016,04,18,09,40,16.60
2016,04,18,09,41,17.00
2016,04,18,09,42,17.30
2016,04,18,09,43,17.70
2016,04,18,09,44,17.90
2016,04,18,09,45,18.20
2016,04,18,09,46,18.50
2016,04,18,09,47,18.70
2016,04,18,09,48,18.90
2016,04,18,09,49,19.10
2016,04,18,09,50,19.20
2016,04,18,09,51,19.40
2016,04,18,09,52,19.50
2016,04,18,09,53,19.60
2016,04,18,09,54,19.70
2016,04,18,09,55,19.70
2016,04,18,09,56,19.80
2016,04,18,09,57,19.90
2016,04,18,09,58,20.00
2016,04,18,09,59,20.10
2016,04,18,10,00,20.20
2016,04,18,10,01,20.30
2016,04,18,10,02,20.40
2016,04,18,10,03,20.50
2016,04,18,10,04,20.50
2016,04,18,10,05,20.60
2016,04,18,10,06,20.70
2016,04,18,10,07,20.70
2016,04,18,10,08,20.80
2016,04,18,10,09,20.80
2016,04,18,10,10,20.90
2016,04,18,10,11,20.90
2016,04,18,10,12,20.90
2016,04,18,10,13,20.90
2016,04,18,10,14,20.90
2016,04,18,10,15,20.90
2016,04,18,10,16,20.90
2016,04,18,10,17,20.90
2016,04,18,10,18,20.90
2016,04,18,10,19,21.00
2016,04,18,10,20,21.00
2016,04,18,10,21,21.00
2016,04,18,10,22,21.00
2016,04,18,10,23,21.00
2016,04,18,10,24,21.10
2016,04,18,10,25,21.10
2016,04,18,10,26,21.10
2016,04,18,10,27,21.10
2016,04,18,10,28,21.10
2016,04,18,10,29,21.10
2016,04,18,10,30,21.10
2016,04,18,10,31,21.10
2016,04,18,10,32,21.10
2016,04,18,10,33,21.10
2016,04,18,10,34,21.10
2016,04,18,10,35,21.10
2016,04,18,10,36,21.10
2016,04,18,10,37,21.10
2016,04,18,10,38,21.10
2016,04,18,10,39,21.00
2016,04,18,10,40,21.00
2016,04,18,10,41,20.90
2016,04,18,10,42,20.90
2016,04,18,10,43,20.90
2016,04,18,10,44,20.90
2016,04,18,10,45,20.90
2016,04,18,10,46,20.90
2016,04,18,10,47,20.90
2016,04,18,10,48,21.00
2016,04,18,10,49,21.00
2016,04,18,10,50,21.10
2016,04,18,10,51,21.10
2016,04,18,10,52,21.20
2016,04,18,10,53,21.20
2016,04,18,10,54,21.30
2016,04,18,10,55,21.30
2016,04,18,10,56,21.30
2016,04,18,10,57,21.30
2016,04,18,10,58,21.40
2016,04,18,10,59,21.50
2016,04,18,11,00,21.60
2016,04,18,11,01,21.70
2016,04,18,11,02,21.80
2016,04,18,11,03,21.90
2016,04,18,11,04,21.90
2016,04,18,11,05,21.90
2016,04,18,11,06,21.90
2016,04,18,11,07,21.90
2016,04,18,11,08,21.90
2016,04,18,11,09,22.00
2016,04,18,11,10,22.00
2016,04,18,11,11,22.10
2016,04,18,11,12,22.10
2016,04,18,11,13,22.10
2016,04,18,11,14,22.10
2016,04,18,11,15,22.00
2016,04,18,11,16,22.00
2016,04,18,11,17,22.00
2016,04,18,11,18,21.90
2016,04,18,11,19,21.90
2016,04,18,11,20,21.90
2016,04,18,11,21,21.90
2016,04,18,11,22,21.90
2016,04,18,11,23,21.90
2016,04,18,11,24,21.90
2016,04,18,11,25,21.90
2016,04,18,11,26,21.90
2016,04,18,11,27,21.90
2016,04,18,11,28,21.90
2016,04,18,11,29,21.90
2016,04,18,11,30,21.90
2016,04,18,11,31,21.90
2016,04,18,11,32,21.90
2016,04,18,11,33,21.90
2016,04,18,11,34,22.00
2016,04,18,11,35,22.00
2016,04,18,11,36,22.10
2016,04,18,11,37,22.10
2016,04,18,11,38,22.20
2016,04,18,11,39,22.20
2016,04,18,11,40,22.20
2016,04,18,11,41,22.30
2016,04,18,11,42,22.30
2016,04,18,11,43,22.30
2016,04,18,11,44,22.40
2016,04,18,11,45,22.40
2016,04,18,11,46,22.50
2016,04,18,11,47,22.60
2016,04,18,11,48,22.60
2016,04,18,11,49,22.60
2016,04,18,11,50,22.50
2016,04,18,11,51,22.50
2016,04,18,11,52,22.40
2016,04,18,11,53,22.40
2016,04,18,11,54,22.40
2016,04,18,11,55,22.40
2016,04,18,11,56,22.50
2016,04,18,11,57,22.50
2016,04,18,11,58,22.60
2016,04,18,11,59,22.70
2016,04,18,12,00,22.80
2016,04,18,12,01,22.90
2016,04,18,12,02,22.90
2016,04,18,12,03,22.90
2016,04,18,12,04,23.00
2016,04,18,12,05,23.00
2016,04,18,12,06,23.10
2016,04,18,12,07,23.10
2016,04,18,12,08,23.20
2016,04,18,12,09,23.10
2016,04,18,12,10,23.20
2016,04,18,12,11,23.20
2016,04,18,12,12,23.20
2016,04,18,12,13,23.20
2016,04,18,12,14,23.10
2016,04,18,12,15,23.00
2016,04,18,12,16,22.90
2016,04,18,12,17,22.80
2016,04,18,12,18,22.60
2016,04,18,12,19,22.50
2016,04,18,12,20,22.40
2016,04,18,12,21,22.30
2016,04,18,12,22,22.20
2016,04,18,12,23,22.20
2016,04,18,12,24,22.10
2016,04,18,12,25,22.00
2016,04,18,12,26,22.00
2016,04,18,12,27,21.90
2016,04,18,12,28,21.90
2016,04,18,12,29,21.90
2016,04,18,12,30,21.80
2016,04,18,12,31,21.80
2016,04,18,12,32,21.80
2016,04,18,12,33,21.80
2016,04,18,12,34,21.80
2016,04,18,12,35,21.80
2016,04,18,12,36,21.80
2016,04,18,12,37,21.80
2016,04,18,12,38,21.80
2016,04,18,12,39,21.80
2016,04,18,12,40,21.80
2016,04,18,12,41,21.80
2016,04,18,12,42,21.80
2016,04,18,12,43,21.80
2016,04,18,12,44,21.70
2016,04,18,12,45,21.70
2016,04,18,12,46,21.60
2016,04,18,12,47,21.60
2016,04,18,12,48,21.60
2016,04,18,12,49,21.60
2016,04,18,12,50,21.70
2016,04,18,12,51,21.80
2016,04,18,12,52,21.80
2016,04,18,12,53,21.90
2016,04,18,12,54,21.90
2016,04,18,12,55,22.00
2016,04,18,12,56,22.00
2016,04,18,12,57,22.10
2016,04,18,12,58,22.10
2016,04,18,12,59,22.20
2016,04,18,13,00,22.20
2016,04,18,13,01,22.20
2016,04,18,13,02,22.20
2016,04,18,13,03,22.30
2016,04,18,13,04,22.30
2016,04,18,13,05,22.30
2016,04,18,13,06,22.30
2016,04,18,13,07,22.40
2016,04,18,13,08,22.40
2016,04,18,13,09,22.50
2016,04,18,13,10,22.60
2016,04,18,13,11,22.60
2016,04,18,13,12,22.70
2016,04,18,13,13,22.80
2016,04,18,13,14,23.00
2016,04,18,13,15,23.10
2016,04,18,13,16,23.20
2016,04,18,13,17,23.20
2016,04,18,13,18,23.00
2016,04,18,13,19,22.70
2016,04,18,13,20,22.20
2016,04,18,13,21,21.90
2016,04,18,13,22,21.60
2016,04,18,13,23,21.30
2016,04,18,13,24,21.10
2016,04,18,13,25,20.90
2016,04,18,13,26,20.80
2016,04,18,13,27,20.70
2016,04,18,13,28,20.60
2016,04,18,13,29,20.50
2016,04,18,13,30,20.40
2016,04,18,13,31,20.30
2016,04,18,13,32,20.20
2016,04,18,13,33,20.10
2016,04,18,13,34,20.10
2016,04,18,13,35,20.00
2016,04,18,13,36,19.90
2016,04,18,13,37,19.80
2016,04,18,13,38,19.70
2016,04,18,13,39,19.60
2016,04,18,13,40,19.50
2016,04,18,13,41,19.40
2016,04,18,13,42,19.40
2016,04,18,13,43,19.30
2016,04,18,13,44,19.30
2016,04,18,13,45,19.30
2016,04,18,13,46,19.30
2016,04,18,13,47,19.30
2016,04,18,13,48,19.30
2016,04,18,13,49,19.30
2016,04,18,13,50,19.40
2016,04,18,13,51,19.50
2016,04,18,13,52,19.50
2016,04,18,13,53,19.60
2016,04,18,13,54,19.60
2016,04,18,13,55,19.70
2016,04,18,13,56,19.80
2016,04,18,13,57,19.80
2016,04,18,13,58,19.90
2016,04,18,13,59,20.00
2016,04,18,14,00,20.10
2016,04,18,14,01,20.20
2016,04,18,14,02,20.30
2016,04,18,14,03,20.30
2016,04,18,14,04,20.30
2016,04,18,14,05,20.40
2016,04,18,14,06,20.40
2016,04,18,14,07,20.50
2016,04,18,14,08,20.50
2016,04,18,14,09,20.60
2016,04,18,14,10,20.60
2016,04,18,14,11,20.60
2016,04,18,14,12,20.70
2016,04,18,14,13,20.70
2016,04,18,14,14,20.70
2016,04,18,14,15,20.70
2016,04,18,14,16,20.70
2016,04,18,14,17,20.80
2016,04,18,14,18,20.80
2016,04,18,14,19,20.80
2016,04,18,14,20,20.80
2016,04,18,14,21,20.80
2016,04,18,14,22,20.80
2016,04,18,14,23,20.80
2016,04,18,14,24,20.80
2016,04,18,14,25,20.80
2016,04,18,14,26,20.80
2016,04,18,14,27,20.80
2016,04,18,14,28,20.80
2016,04,18,14,29,20.80
2016,04,18,14,30,20.80
2016,04,18,14,31,20.80
2016,04,18,14,32,20.80
2016,04,18,14,33,20.80
2016,04,18,14,34,20.80
2016,04,18,14,35,20.90
2016,04,18,14,36,20.90
2016,04,18,14,37,21.00
2016,04,18,14,38,21.10
2016,04,18,14,39,21.20
2016,04,18,14,40,21.30
2016,04,18,14,41,21.40
2016,04,18,14,42,21.50
2016,04,18,14,43,21.60
2016,04,18,14,44,21.70
2016,04,18,14,45,21.80
2016,04,18,14,46,21.90
2016,04,18,14,47,22.00
2016,04,18,14,48,22.20
2016,04,18,14,49,22.40
2016,04,18,14,50,22.50
2016,04,18,14,51,22.70
2016,04,18,14,52,22.90
2016,04,18,14,53,23.00
2016,04,18,14,54,23.20
2016,04,18,14,55,23.20
2016,04,18,14,56,23.20
2016,04,18,14,57,23.20
2016,04,18,14,58,23.10
2016,04,18,14,59,23.10
2016,04,18,15,00,23.00
2016,04,18,15,01,23.00
2016,04,18,15,02,22.90
2016,04,18,15,03,22.90
2016,04,18,15,04,22.90
2016,04,18,15,05,22.90
2016,04,18,15,06,22.80
2016,04,18,15,07,22.80
2016,04,18,15,08,22.70
2016,04,18,15,09,22.70
2016,04,18,15,10,22.70
2016,04,18,15,11,22.60
2016,04,18,15,12,22.60
2016,04,18,15,13,22.70
2016,04,18,15,14,22.70
2016,04,18,15,15,22.70
2016,04,18,15,16,22.60
2016,04,18,15,17,22.70
2016,04,18,15,18,22.70
2016,04,18,15,19,22.70
2016,04,18,15,20,22.70
2016,04,18,15,21,22.70
2016,04,18,15,22,22.80
2016,04,18,15,23,22.80
2016,04,18,15,24,22.90
2016,04,18,15,25,22.90
2016,04,18,15,26,22.90
2016,04,18,15,27,22.90
2016,04,18,15,28,23.00
2016,04,18,15,29,23.00
2016,04,18,15,30,23.00
2016,04,18,15,31,23.10
2016,04,18,15,32,23.10
2016,04,18,15,33,23.10
2016,04,18,15,34,23.10
2016,04,18,15,35,23.10
2016,04,18,15,36,23.20
2016,04,18,15,37,23.20
2016,04,18,15,38,23.20
2016,04,18,15,39,23.20
2016,04,18,15,40,23.30
2016,04,18,15,41,23.30
2016,04,18,15,42,23.40
2016,04,18,15,43,23.50
2016,04,18,15,44,23.60
2016,04,18,15,45,23.70
2016,04,18,15,46,23.80
2016,04,18,15,47,23.90
2016,04,18,15,48,24.00
2016,04,18,15,49,24.10
2016,04,18,15,50,24.20
2016,04,18,15,51,24.20
2016,04,18,15,52,24.30
2016,04,18,15,53,24.40
2016,04,18,15,54,24.40
2016,04,18,15,55,24.40
2016,04,18,15,56,24.40
2016,04,18,15,57,24.40
2016,04,18,15,58,24.40
2016,04,18,15,59,24.40
2016,04,18,16,00,24.40
2016,04,18,16,01,24.30
2016,04,18,16,02,24.30
2016,04,18,16,03,24.30
2016,04,18,16,04,24.30
2016,04,18,16,05,24.30
2016,04,18,16,06,24.30
2016,04,18,16,07,24.20
2016,04,18,16,08,24.00
2016,04,18,16,09,23.90
2016,04,18,16,10,23.90
2016,04,18,16,11,23.80
2016,04,18,16,12,23.80
2016,04,18,16,13,23.70
2016,04,18,16,14,23.70
2016,04,18,16,15,23.70
2016,04,18,16,16,23.50
2016,04,18,16,17,23.20
2016,04,18,16,18,22.70
2016,04,18,16,19,22.20
2016,04,18,16,20,21.70
2016,04,18,16,21,21.30
2016,04,18,16,22,21.00
2016,04,18,16,23,20.90
2016,04,18,16,24,20.80
2016,04,18,16,25,20.80
2016,04,18,16,26,20.80
2016,04,18,16,27,20.90
2016,04,18,16,28,21.10
2016,04,18,16,29,21.30
2016,04,18,16,30,21.50
2016,04,18,16,31,21.70
2016,04,18,16,32,21.80
2016,04,18,16,33,21.80
2016,04,18,16,34,21.60
2016,04,18,16,35,21.50
2016,04,18,16,36,21.40
2016,04,18,16,37,21.20
2016,04,18,16,38,21.10
2016,04,18,16,39,21.00
2016,04,18,16,40,20.90
2016,04,18,16,41,20.80
2016,04,18,16,42,20.70
2016,04,18,16,43,20.50
2016,04,18,16,44,20.30
2016,04,18,16,45,20.20
2016,04,18,16,46,20.00
2016,04,18,16,47,19.90
2016,04,18,16,48,19.90
2016,04,18,16,49,19.90
2016,04,18,16,50,19.90
2016,04,18,16,51,19.90
2016,04,18,16,52,19.90
2016,04,18,16,53,19.90
2016,04,18,16,54,19.90
2016,04,18,16,55,19.90
2016,04,18,16,56,19.90
2016,04,18,16,57,19.80
2016,04,18,16,58,19.80
2016,04,18,16,59,19.80
2016,04,18,17,00,19.80
2016,04,18,17,01,19.90
2016,04,18,17,02,19.90
2016,04,18,17,03,20.00
2016,04,18,17,04,20.10
2016,04,18,17,05,20.10
2016,04,18,17,06,20.20
2016,04,18,17,07,20.30
2016,04,18,17,08,20.40
2016,04,18,17,09,20.50
2016,04,18,17,10,20.60
2016,04,18,17,11,20.70
2016,04,18,17,12,20.70
2016,04,18,17,13,20.80
2016,04,18,17,14,20.80
2016,04,18,17,15,20.90
2016,04,18,17,16,20.90
2016,04,18,17,17,20.90
2016,04,18,17,18,20.90
2016,04,18,17,19,20.80
2016,04,18,17,20,20.80
2016,04,18,17,21,20.80
2016,04,18,17,22,20.90
2016,04,18,17,23,20.90
2016,04,18,17,24,20.90
2016,04,18,17,25,20.90
2016,04,18,17,26,20.90
2016,04,18,17,27,20.90
2016,04,18,17,28,20.90
2016,04,18,17,29,20.90
2016,04,18,17,30,20.90
2016,04,18,17,31,20.80
2016,04,18,17,32,20.70
2016,04,18,17,33,20.70
2016,04,18,17,34,20.60
2016,04,18,17,35,20.50
2016,04,18,17,36,20.50
2016,04,18,17,37,20.40
2016,04,18,17,38,20.40
2016,04,18,17,39,20.40
2016,04,18,17,40,20.40